FENGYUN 1C DEB, 29971

Orbit data source: Space-Track

FENGYUN 1C DEB, 29971 is space debris in SSO originally from a launch on Mon, 10 May 1999 UTC launched from the Taiyaun Space Center, China (TSC). Fengyun 1C debris stems from the Chinese weather satellite Fengyun-1C, which was intentionally destroyed by a Chinese anti-satellite missile in 2007. This event dramatically increased the amount of space debris, with thousands of trackable fragments posing hazards to satellites and human spaceflight. The Fengyun 1C debris cloud has become a focal point in discussions about space sustainability and the need for international regulations to prevent the creation of new debris.

Loading next visibility...
Identifier
29971, 1999-025KV
Orbit
SSO
Country
Flag of CNCN / PRC
Related business
Manufacturer
Unknown
Mission
Spacecraft
Bus & Motor
Unknown
Mass
Unknown
Launch date (UTC)
1999-05-10 (27 years ago)
Launch vehicle
Unknown
Launch site
Taiyaun Space Center, China (TSC)
Object type
Payload
Rocket body
Debris
Shape & HBR
Unknown shape, 0.1 m
Radar Cross Section
Small (<0.1 m²)

Expand to show TLE details & history
Last TLE update: 12 hours ago

TLE from 12 hours ago
0 FENGYUN 1C DEB
1 29971U 99025KV  26072.92775641  .00001581  00000-0  78343-3 0  9994
2 29971  98.6706 115.6916 0021766 266.2787 217.2513 14.18520105986321
Epoch: 2026-03-13T22:15Z
TLE epoch observation values (Epoch: 2026-03-13T22:15:58.153Z)
Latitude
55.73936°
Longitude
163.01074°
Altitude
852.105 km
Speed
7.425 km/s
True Right ascension
20h 34m 14s
True Declination
55° 34' 52"
Sunlit
Object was in daylight at epoch
Visualization orbit readout
Latitude
Unknown
Longitude
Unknown
Altitude
Unknown
Speed
Unknown
Apparent Right ascension
Unknown
Apparent Declination
Unknown
Sunlit
N/A
Visualization observer readout
Local Sidereal Time
14:38:46
Azimuth
Unknown
Elevation
Unknown
Doppler factor
Unknown
Orbital elements
Apogee altitude
843.205 km
Perigee altitude
811.837 km
Semi-major axis
7,205.658 km
Eccentricity
0.00218
Inclination
98.6706°
RAAN
115.6916°
Arg. of periapsis
266.2787°
True anomaly
217.10065°
Mean anomaly
217.2513°
Eccentric anomaly
217.17594°
Mean motion
3.5484 °/min
Orbital period
101.45 mins
BSTAR
0.00078343
Loading maneuver chart data...
Computing Atmospheric mass density...

Documentation

Showing up to 5 results
|